Track STARLINK-2081 now! 10-day predictions STARLINK-2081 is classified as:
1 47366U 21005T 21111.91667824 .00035574 00000-0 23964-2 0 9993 2 47366 53.0520 144.7873 0000969 84.4450 248.8307 15.06379664 14336